Location: Igri�s
(42.2144°N, 0.4320°W)
Time: 12:39:30
(UTC+00:00)

CARTOSAT-1 - Pass Details

Date: 13 August 2020
Orbit: 616 x 619 km, 97.8° (Epoch: 24 September)

Event Time Altitude Azimuth Distance (km) Brightness Sun altitude
Exits shadow 21:43:59 82° 286° (WNW) 631 3.5 -24.7°
Drops below altitude 10° 21:48:14 10° 346° (NNW) 1,995 7.0 -25.2°
Sets 21:50:26 0° 347° (NNW) 2,905 8.1 -25.4°
